This demonstration page uses our WeatherBlox Daily Observations layout. Learn more.

Left ArrowRight Arrow

39.01783, -85.05884

Hourly Observations for November 12, 2022

Temp ( °F °C ) Dew Point ( °F °C ) Humidity (%) Winds ( mph kmh ) Pressure ( in mb ) Visibility ( mi km ) Precip ( " mm )
12:52 am 00:52 Cloudy 44 6.7 33 0.6 65 65 WNW 14 22 29.87 1012 10 16 0.00 0.00
1:52 am 01:52 Cloudy 42 5.6 31 -0.6 64 64 WNW 13 20 29.89 1012 10 16 0.00 0.00
2:52 am 02:52 Cloudy 40 4.4 31 -0.6 70 70 NW 13 20 29.89 1012 10 16 0.00 0.00
3:52 am 03:52 Cloudy 38 3.3 30 -1.1 73 73 NW 13 20 29.89 1012 10 16 0.00 0.00
4:52 am 04:52 Cloudy 36 2.2 29 -1.7 75 75 NW 10 17 29.89 1012 10 16 0.00 0.00
5:52 am 05:52 Cloudy 35 1.7 27 -2.8 72 72 NW 12 19 29.89 1012 10 16 0.00 0.00
6:45 am 06:45 Cloudy with Light Sleet 34 1.1 28 -2.2 79 79 NW 9 15 29.94 1014 10 16 0.01 0.13
6:52 am 06:52 Cloudy 33 0.6 28 -2.2 81 81 NW 12 19 29.91 1013 10 16 0.01 0.13
7:52 am 07:52 Cloudy with Light Snow 33 0.6 27 -2.8 78 78 W 16 26 29.98 1015 7 11 0.01 0.13
8:18 am 08:18 Cloudy with Light Snow 32 0 27 -2.8 81 81 WNW 14 22 30.03 1017 4 6 0.01 0.13
8:31 am 08:31 Cloudy with Light Snow 32 0 28 -2.2 85 85 W 10 17 30.04 1017 2 2 0.01 0.13
8:52 am 08:52 Cloudy with Light Snow 31 -0.6 30 -1.1 96 96 NNW 13 20 29.94 1014 1 1 0.01 0.13
9:01 am 09:01 Cloudy with Snow 31 -0.6 30 -1.1 96 96 N 10 17 29.97 1015 0 0 0.01 0.25
9:15 am 09:15 Cloudy with Snow 31 -0.6 30 -1.1 96 96 N 12 19 29.96 1015 1 1 0.02 0.51
9:52 am 09:52 Cloudy with Light Snow 31 -0.6 30 -1.1 96 96 WNW 10 17 29.97 1015 2 3 0.03 0.76
10:04 am 10:04 Cloudy with Snow 30 -1.1 30 -1.1 100 100 NW 10 17 30.00 1016 1 1 0.02 0.51
10:50 am 10:50 Cloudy with Light Snow 30 -1 30 -1 100 100 NW 10 17 30.00 1016 1 1 0.10 2.54
10:52 am 10:52 Cloudy with Light Snow 30 -1.1 30 -1.1 100 100 WNW 9 15 29.97 1015 1 1 0.10 2.54
11:06 am 11:06 Cloudy with Snow 30 -1.1 30 -1.1 100 100 W 7 11 30.01 1016 1 1 0.01 0.25
11:52 am 11:52 Cloudy with Snow 31 -0.6 30 -1.1 96 96 W 8 13 29.98 1015 1 1 0.02 0.51
11:59 am 11:59 Cloudy with Snow 31 -0.6 30 -1.1 96 96 WNW 12 19 30.02 1017 1 1 0.01 0.13
12:52 pm 12:52 Cloudy with Light Snow 32 0 31 -0.6 96 96 W 14 22 29.98 1015 1 1 0.02 0.51
1:25 pm 13:25 Cloudy with Mist and Fog 32 0 30 -1.1 92 92 WNW 10 17 30.00 1016 6 10 0.01 0.13
1:52 pm 13:52 Cloudy with Mist and Fog 32 0 30 -1.1 92 92 WNW 7 11 29.98 1015 5 8 0.01 0.13
2:04 pm 14:04 Cloudy with Light Snow 32 0 30 -1.1 92 92 W 12 19 30.02 1016 2 3 0.01 0.13
2:13 pm 14:13 Cloudy with Light Snow 32 0 30 -1.1 92 92 W 10 17 30.02 1016 3 5 0.01 0.13
2:52 pm 14:52 Cloudy 32 0 29 -1.7 88 88 W 10 17 30.01 1016 8 13 0.01 0.13
3:16 pm 15:16 Cloudy 32 0 30 -1.1 92 92 W 9 15 30.05 1017 7 11 0.00 0.00
3:52 pm 15:52 Cloudy with Mist and Fog 31 -0.6 28 -2.2 89 89 W 12 19 30.03 1017 6 10 0.00 0.00
4:52 pm 16:52 Cloudy 31 -0.6 28 -2.2 89 89 W 13 20 30.05 1018 7 11 0.00 0.00
5:39 pm 17:39 Cloudy 31 -0.6 27 -2.8 85 85 W 10 17 30.10 1019 9 14 0.00 0.00
5:52 pm 17:52 Cloudy 31 -0.6 27 -2.8 85 85 W 12 19 30.07 1018 9 14 0.00 0.00
6:11 pm 18:11 Cloudy 31 -0.6 27 -2.8 85 85 W 10 17 30.11 1020 9 14 0.00 0.00
6:52 pm 18:52 Cloudy 31 -0.6 28 -2.2 89 89 W 7 11 30.10 1019 10 16 0.00 0.00
7:49 pm 19:49 Cloudy 30 -1 28 -2 93 93 W 9 15 30.15 1021 9 14 0.00 0.00
7:52 pm 19:52 Cloudy 31 -0.6 28 -2.2 89 89 WSW 10 17 30.11 1020 9 14 0.00 0.00
8:52 pm 20:52 Cloudy with Mist and Fog 31 -0.6 28 -2.2 89 89 WSW 9 15 30.12 1020 6 10 0.00 0.00
9:11 pm 21:11 Cloudy with Light Freezing Rain 31 -0.6 30 -1.1 96 96 W 10 17 30.16 1021 3 5 0.01 0.13
9:31 pm 21:31 Cloudy with Mist and Fog 31 -0.6 30 -1.1 96 96 WSW 8 13 30.16 1021 4 6 0.01 0.13
9:52 pm 21:52 Cloudy with Light Freezing Drizzle 31 -0.6 30 -1.1 96 96 WSW 8 13 30.13 1020 4 6 0.01 0.13
10:52 pm 22:52 Cloudy with Light Freezing Drizzle 31 -0.6 30 -1.1 96 96 W 8 13 30.13 1020 6 10 0.01 0.13
11:37 pm 23:37 Cloudy with Mist and Fog 31 -0.6 30 -1.1 96 96 W 9 15 30.17 1022 6 10 0.01 0.13
11:52 pm 23:52 Cloudy with Light Freezing Drizzle 31 -0.6 30 -1.1 96 96 W 9 15 30.14 1021 6 10 0.01 0.13

Powered by Vaisala Xweather